Simultaneous Nadir Overpasses (SNOs) Predictions

Prediction of SNOs between GOES-16 and TERRA Satellite Orbit:

Table of predicted SNOs for the next 14.0 days since TLE Epoch: 10/9/2020
Index Date Time (GOES-16) GOES-16 Lat,Lon TERRA Lat,Lon Distance(km) Time Diff (sec)
1 10/10/2020 15:17:48 -0.02, -75.26 -0.65, -72.30 337.05 80
2 10/11/2020 03:41:52 0.02, -75.24 -0.47, -77.49 255.93 80
3 10/13/2020 03:27:01 0.02, -75.26 0.19, -74.54 82.84 80
4 10/13/2020 15:50:56 -0.02, -75.30 0.93, -79.69 499.49 80
5 10/15/2020 03:14:49 0.02, -75.29 0.80, -71.58 422.13 80
6 10/15/2020 15:38:45 -0.02, -75.33 0.26, -76.74 160.05 80
7 10/17/2020 15:23:53 -0.02, -75.37 -0.35, -73.78 179.94 80
8 10/18/2020 03:47:57 0.02, -75.35 -0.77, -78.97 412.46 80
9 10/20/2020 03:35:46 0.02, -75.38 -0.10, -76.02 72.12 80
10 10/22/2020 03:20:54 0.01, -75.43 0.52, -73.06 268.71 80
11 10/22/2020 15:42:10 -0.01, -75.47 0.55, -78.23 313.30 80
